Regional Weather Roundup
Issued by NWS

Home | Current Version | Previous Version | Graphics & Text | Print | Product List | Glossary On
Versions: 1 2 3 4 5 6 7 8 9 10 11 12 13 14 15 16 17 18 19 20 21 22 23 24 25 26 27 28 29 30 31 32 33 34 35 36 37 38 39 40 41 42 43 44 45 46 47 48 49 50
000
ASUS43 KLMK 061102
RWRKY
KENTUCKY REGIONAL WEATHER ROUNDUP
NATIONAL WEATHER SERVICE LOUISVILLE KY
700 AM EDT MON JUL 06 2015

NOTE "FAIR" INDICATES FEW OR NO CLOUDS BELOW 12,000 FEET
WITH NO SIGNIFICANT WEATHER AND/OR OBSTRUCTIONS TO VISIBILITY.

KYZ001>023-026-027-061>063-070>075-061200-
WESTERN AND SOUTH CENTRAL KENTUCKY

CITY           SKY/WX    TMP DP  RH WIND       PRES   REMARKS
PADUCAH        MOCLDY    71  69  93 S3        30.07R FOG
HENDERSON      MOCLDY    68  64  88 CALM      30.07S
OWENSBORO      CLEAR     69  68  97 CALM      30.09R FOG
HOPKINSVILLE   MOCLDY    71  70  97 SW6       30.11R
BOWLING GREEN  FOG       67  65  93 CALM      30.11R VSB 1/2
GLASGOW        NOT AVBL
$$

KYZ024-025-028>034-038-045-046-053-061200-
NORTH CENTRAL KENTUCKY

CITY           SKY/WX    TMP DP  RH WIND       PRES   REMARKS
LOUISVILLE/SDF CLEAR     67  64  90 CALM      30.10R FOG
LOUISVILLE/LOU CLEAR     65  62  90 CALM      30.11R FOG
FORT KNOX      CLEAR     64  63  97 CALM      30.10R FOG
$$

KYZ035>037-039>044-047>052-055>060-089>105-061200-
NORTHEAST KENTUCKY

CITY           SKY/WX    TMP DP  RH WIND       PRES   REMARKS
LEXINGTON      MOCLDY    65  63  93 S5        30.12R FOG
COVINGTON      PTCLDY    62  60  93 W3        30.10R
FRANKFORT      PTCLDY    62  60  93 CALM      30.10R FOG
$$

KYZ054-064>069-076>088-106>120-061200-
SOUTHEAST KENTUCKY

CITY           SKY/WX    TMP DP  RH WIND       PRES   REMARKS
JACKSON        FOG       66  65  96 CALM      30.13R VSB 1/4
LONDON         CLOUDY    67  64  90 W3        30.13R FOG
SOMERSET       NOT AVBL
MIDDLESBORO    FOG       64  64 100 CALM      30.15R VSB 1/4
MONTICELLO     FOG       65  65 100 CALM      30.15R VSB<1/4
$$



USA.gov is the U.S. government's official web portal to all federal, state and local government web resources and services.